SCP
0 0 0 0 0 0 0 0 0 -0 -0 -0 -0 -0 -0 -0 -0 -0 -0 -0 -0 -0 -0 -0 -0 -0 0 -0 0 -0 0 -0 -0 0 0 0 0 0 0 0 -0 0 -0 -0 -0 0 -0
-0 -0 -0 0 0 -0 -0 -0 -0 -0 -0 -0 -0 -0 -0 -0 -0 -0 -0 -0 -0 -0 -0 -0 -0 -0 -0 0 -0 0 0 0 0 0 0 0 0 0 0 0 0 0 0 0 0 -0 -0
-0 -0 -0 -0 -0 -0 -0 -0 -0 -0 -0 -0 -0 -0 -0 -0 -0 -0 -0 -0 -0 -0 -0 -0 0 0 0 0 0 0 0 0 0 0 0 0 0 0 0 0 0 0 0 0 0 -0 0
-0 -0 -0 -0 -0 -0 -0 -0 -0 -0 -0 -0 -0 -0 -0 -0 -0 -0 -0 -0 -0 -0 0 0 0 0 0 0 0 0 0 0 0 0 0 0 0 0 0 0 0 0 0 0 0 -0 0
-0 -0 -0 -0 -0 -0 -0 -0 -0 -0 -0 -0 -0 -0 -0 -0 -0 -0 -0 -0 -0 0 0 -0 0 0 0 0 0 -0 0 0 0 0 0 0 0 0 0 0 0 0 0 0 -0 0 0
-0 -0 -0 -0 -0 -0 -0 -0 -0 -0 -0 -0 -0 -0 -0 -0 -0 -0 -0 -0 0 0 0 0 0 0 0 0 0 0 0 0 0 0 0 0 0 0 0 0 0 0 0 0 0 0 0
-0 -0 -0 -0 -0 -0 -0 -0 -0 -0 -0 -0 -0 -0 -0 -0 -0 -0 -0 0 0 0 0 0 0 0 0 0 0 0 0 0 0 -0 0 0 -0 0 0 0 0 0 0 0 0 0 0
0 0 -0 -0 -0 -0 -0 -0 -0 -0 -0 -0 -0 -0 -0 -0 -0 -0 0 0 0 0 0 0 0 0 0 0 0 0 0 0 0 0 0 -0 0 0 0 0 0 0 0 0 0 0 0
-0 -0 -0 -0 -0 -0 -0 -0 -0 -0 -0 -0 -0 -0 -0 -0 -0 0 0 0 0 0 0 0 0 0 0 0 0 0 0 0 0 0 0 0 0 0 0 0 0 0 0 0 0 0 0
-0 -0 -0 -0 -0 -0 -0 -0 -0 -0 -0 -0 -0 -0 -0 -0 0 -0 0 0 0 0 0 0 0 0 0 0 0 0 0 0 0 0 0 0 0 0 0 0 0 0 0 0 0 0 0
-0 -0 -0 -0 -0 -0 -0 -0 -0 -0 -0 -0 -0 -0 0 0 -0 0 -0 0 0 0 0 0 0 0 0 0 0 0 0 0 0 0 0 0 0 0 0 0 0 0 0 0 0 0 0
0 -0 -0 -0 -0 -0 -0 -0 -0 -0 -0 -0 -0 0 0 0 0 -0 0 0 0 0 0 0 0 0 0 0 0 0 0 0 0 0 0 0 0 0 0 0 0 0 0 0 0 0 0
0 0 -0 -0 -0 -0 -0 -0 -0 -0 -0 -0 -0 -0 -0 0 0 0 0 0 0 0 0 0 0 0 0 0 0 0 0 0 0 0 0 0 0 0 0 0 0 0 0 0 0 0 0
0 0 0 0 -0 -0 -0 -0 -0 -0 -0 -0 -0 -0 -0 0 0 0 0 0 0 0 0 0 0 0 0 0 0 0 0 0 0 0 0 0 0 0 0 0 0 0 0 0 0 0 0
0 0 0 0 0 -0 -0 -0 -0 -0 -0 -0 0 0 0 0 0 0 0 0 0 0 0 0 0 0 0 0 0 0 0 0 0 0 0 0 0 0 0 0 0 0 0 0 0 0 0
0 0 0 0 0 0 -0 -0 -0 -0 -0 0 0 0 0 0 0 0 0 0 0 0 0 0 0 0 0 0 0 0 0 0 0 0 0 0 0 0 0 0 0 0 0 0 0 0 0
0 0 0 0 0 0 0 -0 -0 -0 -0 0 0 0 0 0 0 0 0 0 0 0 0 0 0 0 0 0 0 0 0 0 0 0 0 0 0 0 0 0 0 0 0 0 0 0 0
0 0 0 0 0 0 -0 -0 -0 -0 0 0 0 0 0 0 0 0 0 0 0 0 0 0 0 0 0 0 0 0 0 0 0 0 0 0 0 0 0 0 0 0 0 0 0 0 0
0 0 0 0 0 0 -0 -0 -0 0 0 0 0 0 0 0 0 0 0 0 0 0 0 0 0 0 0 0 0 0 0 0 0 0 0 0 0 0 0 0 0 0 0 0 0 0 0
0 0 0 0 0 0 0 0 0 0 0 0 0 0 0 0 0 0 0 0 0 0 0 0 0 0 0 0 0 0 0 0 0 0 0 0 0 0 0 0 0 0 0 0 0 0 0
0 0 0 0 0 0 0 0 0 0 0 0 0 0 0 0 0 0 0 0 0 0 0 0 0 0 0 0 0 0 0 0 0 0 0 0 0 0 0 0 0 0 0 0 0 0 0
0 0 0 0 0 0 0 0 0 0 0 0 0 0 0 0 0 0 0 0 0 0 0 0 0 0 0 0 0 0 0 0 0 0 0 0 0 0 0 0 0 0 0 0 0 0 0
0 0 0 0 0 0 0 0 0 0 0 0 0 0 0 0 0 0 0 0 0 0 0 0 0 0 0 0 0 0 0 0 0 0 0 0 0 0 0 0 0 0 0 0 0 0 0
0 0 0 0 0 0 0 0 0 0 0 0 0 0 0 0 0 0 0 0 0 0 0 0 0 0 0 0 0 0 0 0 0 0 0 0 0 0 0 0 0 0 0 0 0 0 0
0 0 0 0 0 0 0 0 0 0 0 0 0 0 0 0 0 0 0 0 0 0 0 0 0 0 0 0 0 0 0 0 0 0 0 0 0 0 0 0 0 0 0 0 0 0 0
0 0 0 0 0 0 0 0 0 0 0 0 0 0 0 0 0 0 0 0 0 0 0 0 0 0 0 0 0 0 0 0 0 0 0 0 0 0 0 0 0 0 0 0 0 0 0
0 0 0 0 0 0 0 0 0 0 0 0 0 0 0 0 0 0 0 0 0 0 0 0 0 0 0 0 0 0 0 0 0 0 0 0 0 0 0 0 0 0 0 0 0 0 0
0 0 0 0 0 0 0 0 0 0 0 0 0 0 0 0 0 0 0 0 0 0 0 0 0 0 0 0 0 0 0 0 0 0 0 0 0 0 0 0 0 0 0 0 0 0 0
0 0 0 0 0 0 0 0 0 0 0 0 0 0 0 0 0 0 0 0 0 0 0 0 0 0 0 0 0 0 0 0 0 0 0 0 0 0 0 0 0 0 -0 -0 0 0 0
Wind_Speed_500mb
34 38 42 45 51 55 52 43 39 39 38 37 38 38 35 34 34 31 28 23 20 18 17 14 12 10 4 2 5 4 4 3 1 2 5 7 9 7 4 7 12 4 7 17 20 28 14
40 45 50 51 50 42 38 37 36 37 37 37 37 36 35 33 33 32 29 25 20 16 15 12 8 5 6 4 10 6 1 4 4 1 6 5 6 8 5 5 1 6 17 30 28 29 18
48 47 43 40 36 37 37 36 36 37 38 38 35 34 32 31 30 31 28 24 18 12 11 9 7 7 9 9 8 2 6 4 4 2 4 7 11 9 5 8 8 11 12 14 5 8 7
40 33 29 31 32 34 35 36 37 38 37 35 34 33 29 29 27 28 26 17 11 4 6 10 9 9 5 8 6 4 7 5 4 2 4 11 13 7 4 9 10 7 8 11 9 10 9
26 26 27 29 30 32 33 35 35 36 36 35 32 29 27 25 24 25 18 12 12 13 13 15 10 8 7 5 3 1 2 4 6 4 4 11 11 3 2 6 8 12 1 5 18 12 2
22 24 26 27 28 32 33 35 35 36 36 34 30 26 22 19 20 21 9 12 18 18 16 12 9 6 6 3 3 7 8 7 2 3 7 1 3 6 7 9 4 4 5 5 8 10 10
20 22 24 28 29 31 32 34 35 37 39 38 33 26 19 14 16 17 8 11 5 8 11 8 5 5 4 12 3 4 4 6 6 3 4 7 10 5 9 10 8 4 5 7 9 5 6
21 25 26 29 27 32 32 36 37 38 39 40 35 27 16 11 13 17 9 13 14 5 5 12 8 7 8 7 4 4 3 3 3 1 4 11 5 9 5 5 7 5 4 9 8 5 7
16 18 24 27 31 33 34 35 37 38 39 40 35 25 12 5 14 14 24 21 12 10 4 7 10 7 7 4 3 2 1 2 2 1 2 8 10 4 5 2 4 5 8 5 5 10 7
17 21 27 33 35 34 35 38 39 40 38 37 31 23 11 5 6 10 18 12 7 9 9 13 8 7 7 4 5 2 2 3 4 3 0 8 7 1 1 5 8 6 4 2 1 7 7
20 22 26 26 28 31 34 36 38 39 39 35 24 23 14 9 5 10 12 7 6 2 6 5 6 6 5 3 5 3 4 2 3 6 9 11 4 2 2 5 6 10 3 4 3 5 5
19 25 29 27 28 29 33 36 38 38 37 30 20 23 20 10 10 10 7 6 5 9 4 6 8 11 11 5 3 3 4 3 2 3 2 12 8 5 8 1 2 5 6 11 8 6 2
22 29 29 29 29 30 32 35 38 41 36 27 14 25 26 19 14 11 7 5 8 10 7 11 6 10 8 7 7 6 9 14 9 10 11 12 5 6 1 4 6 10 10 6 6 5 8
23 27 29 31 32 33 34 36 36 38 34 26 5 16 25 23 13 11 4 7 11 1 5 7 6 9 3 13 10 13 6 9 10 10 5 6 11 4 4 3 4 2 9 9 5 3 6
24 27 25 31 33 34 37 40 39 39 34 21 5 6 28 22 13 12 3 12 3 5 6 12 11 8 8 9 8 10 7 4 5 10 3 7 9 8 2 3 4 1 2 6 8 4 3
22 22 25 30 30 33 36 38 39 36 36 24 8 6 29 17 14 11 11 9 5 10 8 5 7 10 9 14 10 9 6 7 11 8 7 2 9 4 9 3 5 4 6 2 5 5 6
18 22 25 29 31 31 33 37 39 37 34 23 7 2 27 9 10 15 8 5 7 10 13 9 6 7 7 8 6 7 6 4 11 13 6 7 4 13 6 3 1 7 3 6 4 6 8
18 22 26 30 29 31 34 35 37 38 32 18 6 6 28 5 12 9 5 5 8 16 25 15 8 9 6 9 8 6 5 9 26 10 6 3 3 8 14 5 4 3 6 6 7 6 1
17 21 25 29 29 29 32 34 35 34 33 21 8 10 24 8 7 4 8 9 21 15 14 11 11 11 10 9 5 10 7 11 32 16 8 9 4 8 15 10 13 13 9 11 3 3 8
16 19 23 29 29 29 30 30 34 31 27 17 6 6 20 33 17 9 7 8 7 24 19 17 14 14 10 11 10 5 12 11 20 24 19 3 2 6 8 5 4 12 24 8 5 5 7
15 21 25 28 29 30 32 37 36 30 22 8 11 7 7 5 19 19 10 6 5 10 13 31 10 12 6 7 9 8 10 13 11 26 12 9 3 7 7 12 7 13 9 11 5 11 6
12 20 21 23 26 29 32 34 35 31 18 14 9 8 14 10 6 14 15 9 7 6 10 7 8 7 8 5 3 7 10 4 7 13 9 15 5 8 7 7 10 8 14 7 11 8 15
11 14 18 19 22 26 30 33 34 35 24 19 21 18 9 19 7 7 2 2 7 5 8 12 4 5 7 2 26 38 37 36 31 7 7 5 1 6 9 10 16 2 8 15 10 14 6
8 12 13 17 20 21 26 32 35 39 41 25 19 11 10 6 8 4 7 9 7 9 3 9 12 7 10 33 38 20 19 29 30 28 27 4 3 1 6 11 6 8 8 16 14 7 10
3 8 10 12 15 17 22 27 30 32 36 29 21 9 9 6 8 16 14 7 10 8 7 4 10 15 19 17 9 10 8 4 6 5 14 23 7 4 3 4 1 6 4 4 3 5 3
3 4 6 8 10 14 18 20 24 25 26 24 30 23 15 20 3 10 7 7 3 5 10 4 11 14 14 7 6 7 5 5 9 14 20 11 5 4 0 3 7 2 9 22 6 9 4
6 4 4 2 7 13 16 18 20 21 21 23 27 23 15 15 7 7 6 3 3 5 2 5 15 16 19 6 6 5 4 3 4 7 7 5 3 7 8 7 7 5 12 17 9 5 6
7 7 6 6 3 7 10 13 16 18 18 17 21 22 18 10 10 8 6 4 3 1 4 6 6 9 8 7 4 3 3 3 4 6 5 3 2 5 2 6 9 8 1 4 14 19 11
10 7 4 10 2 2 2 8 12 13 13 14 16 18 17 7 3 7 0 6 22 8 2 1 3 1 2 6 2 2 3 4 4 5 8 6 9 6 12 8 1 6 9 36 24 20 9
Wind_Direction_500mb
326 324 321 320 319 320 320 324 325 328 325 334 332 330 330 329 327 326 322 312 295 275 264 264 282 297 278 204 130 137 151 194 224 99 1 27 40 22 2 320 337 178 307 311 294 298 275
318 318 317 317 317 321 322 325 327 323 329 333 330 330 330 330 331 330 326 315 301 273 253 244 248 248 179 146 139 100 332 244 213 171 35 33 27 340 280 271 174 298 292 289 295 283 278
310 311 314 316 321 326 324 326 326 329 332 327 326 327 328 330 334 331 330 319 311 278 244 223 212 176 174 145 156 118 357 178 178 288 325 335 336 327 310 310 320 301 317 330 348 328 220
311 318 325 326 332 331 326 332 336 336 330 326 328 327 327 331 336 337 341 340 340 304 179 158 155 147 107 156 203 277 311 200 178 224 356 356 346 320 252 314 356 23 39 9 311 5 358
325 333 336 335 334 331 332 335 338 338 338 335 330 327 329 334 341 348 359 30 59 86 113 121 125 120 116 127 88 5 239 206 208 206 288 305 319 31 35 63 15 6 7 331 325 13 342
341 344 343 342 343 345 346 348 348 350 349 345 338 332 332 337 350 2 32 86 87 96 107 99 89 110 114 60 327 304 249 225 272 215 278 7 40 58 31 64 216 287 346 304 260 311 3
349 349 352 352 350 352 351 352 355 356 355 354 348 340 334 341 3 17 106 121 102 81 52 59 29 25 27 347 2 100 115 198 228 323 41 21 54 228 236 197 188 196 204 251 263 276 9
356 357 352 352 351 349 352 353 356 357 355 354 353 347 340 346 35 35 79 104 85 104 55 49 39 15 336 332 13 101 104 73 89 329 7 15 249 234 244 208 208 238 271 273 288 313 96
353 345 346 348 349 350 352 354 356 359 358 355 353 358 357 11 45 45 58 82 88 114 68 33 30 23 358 349 28 113 47 46 155 294 197 168 246 7 179 244 265 248 201 228 231 344 47
328 335 353 355 356 358 357 356 360 1 360 357 357 7 21 75 36 55 43 44 77 105 81 324 1 20 8 36 16 35 14 336 34 272 53 225 280 46 122 271 140 300 208 118 85 60 212
356 7 358 2 1 3 2 1 2 3 0 2 12 17 30 41 76 50 13 40 122 118 66 342 349 357 343 24 319 28 325 284 257 282 70 262 313 338 311 228 172 227 79 299 215 117 38
5 4 3 9 9 6 1 360 1 4 5 5 23 26 25 43 42 21 47 104 113 47 101 357 350 354 9 6 342 344 37 40 342 318 332 239 287 239 214 329 244 79 66 48 49 93 353
3 3 7 8 5 3 1 360 359 0 5 4 28 30 34 30 7 17 14 121 43 94 312 341 343 3 352 309 342 36 43 19 26 10 3 332 317 308 277 13 34 71 56 342 357 11 225
359 1 4 5 3 0 358 355 356 355 360 357 6 30 24 13 8 9 37 57 74 81 342 337 346 312 82 8 30 9 55 28 16 23 27 24 329 350 356 144 194 59 138 151 257 236 275
357 359 7 4 3 360 356 352 352 350 348 356 344 24 13 5 16 12 28 52 109 1 316 343 314 39 350 6 43 71 52 7 331 13 73 8 278 320 288 2 83 145 191 183 117 20 50
0 9 9 4 1 357 354 352 348 353 347 351 343 303 5 14 15 23 70 117 94 15 338 14 43 28 356 351 25 47 19 1 334 15 323 17 311 321 302 10 45 160 179 17 11 212 239
4 9 7 0 358 355 352 353 349 350 349 348 11 67 4 11 30 45 92 115 102 19 35 43 42 18 11 13 327 15 18 23 9 319 27 4 105 290 330 63 46 348 333 53 120 149 179
11 9 6 5 2 356 358 353 350 351 356 354 48 54 5 57 45 43 61 51 49 6 29 40 89 49 29 358 346 43 75 11 358 330 1 2 142 271 251 271 298 280 9 110 132 256 30
14 8 6 3 5 359 359 360 355 357 0 11 51 10 17 114 99 56 74 70 53 27 17 15 33 27 19 20 27 34 34 21 18 27 31 327 2 341 339 3 10 37 21 15 317 60 207
17 14 8 3 6 7 9 7 360 359 2 21 40 34 32 55 61 85 80 26 89 48 52 64 23 45 17 28 12 35 353 5 353 18 4 35 53 175 214 276 299 309 319 10 42 324 307
8 12 1 0 6 9 13 12 9 2 5 53 60 67 33 11 23 69 77 40 45 19 31 31 43 51 12 348 348 21 7 332 7 8 32 63 295 8 284 274 271 265 321 348 266 235 245
2 11 5 5 10 14 16 20 18 15 12 68 85 107 82 55 51 55 28 16 52 24 34 14 69 345 24 84 138 296 20 299 267 355 31 357 296 6 286 298 308 248 359 38 41 355 87
7 13 3 10 18 21 25 26 31 31 34 77 86 97 100 16 43 76 2 59 43 99 68 69 66 19 8 284 304 290 276 255 258 302 358 307 332 24 271 327 310 284 12 82 76 36 71
1 6 9 14 22 29 33 34 39 42 47 67 86 92 87 18 66 61 89 92 67 38 109 34 34 34 317 314 306 292 269 258 250 250 217 225 111 145 282 344 242 142 105 104 91 22 60
342 1 7 18 24 33 39 38 38 46 51 49 60 84 95 109 109 65 70 79 62 62 72 73 22 335 329 334 9 3 352 22 22 212 215 195 146 258 244 247 347 256 20 2 312 200 88
286 322 5 17 40 47 43 43 43 48 51 49 61 72 96 120 336 118 86 43 88 11 10 22 11 20 18 59 48 38 27 317 330 352 57 107 98 145 53 247 261 63 293 322 199 236 283
256 287 333 46 72 61 52 49 49 47 44 46 57 59 77 96 111 120 114 144 81 63 113 335 346 2 13 32 54 39 317 293 336 336 326 351 63 195 248 255 277 253 338 343 177 143 258
239 271 279 190 104 60 42 41 40 45 48 47 51 47 52 92 134 128 145 196 209 119 117 339 20 6 31 52 49 317 354 312 325 279 284 244 320 235 231 232 245 236 224 1 277 312 285
226 255 254 193 224 191 53 35 25 24 33 38 40 30 30 69 164 268 13 274 237 241 327 332 138 22 56 93 35 113 299 343 149 262 328 275 198 214 185 235 254 186 245 309 283 284 278
Wind_Speed_850mb
34 38 42 45 51 55 52 43 39 39 38 37 38 38 35 34 34 31 28 23 20 18 17 14 12 10 4 2 5 4 4 3 1 2 5 7 9 7 4 7 12 4 7 17 20 28 14
40 45 50 51 50 42 38 37 36 37 37 37 37 36 35 33 33 32 29 25 20 16 15 12 8 5 6 4 10 6 1 4 4 1 6 5 6 8 5 5 1 6 17 30 28 29 18
48 47 43 40 36 37 37 36 36 37 38 38 35 34 32 31 30 31 28 24 18 12 11 9 7 7 9 9 8 2 6 4 4 2 4 7 11 9 5 8 8 11 12 14 5 8 7
40 33 29 31 32 34 35 36 37 38 37 35 34 33 29 29 27 28 26 17 11 4 6 10 9 9 5 8 6 4 7 5 4 2 4 11 13 7 4 9 10 7 8 11 9 10 9
26 26 27 29 30 32 33 35 35 36 36 35 32 29 27 25 24 25 18 12 12 13 13 15 10 8 7 5 3 1 2 4 6 4 4 11 11 3 2 6 8 12 1 5 18 12 2
22 24 26 27 28 32 33 35 35 36 36 34 30 26 22 19 20 21 9 12 18 18 16 12 9 6 6 3 3 7 8 7 2 3 7 1 3 6 7 9 4 4 5 5 8 10 10
20 22 24 28 29 31 32 34 35 37 39 38 33 26 19 14 16 17 8 11 5 8 11 8 5 5 4 12 3 4 4 6 6 3 4 7 10 5 9 10 8 4 5 7 9 5 6
21 25 26 29 27 32 32 36 37 38 39 40 35 27 16 11 13 17 9 13 14 5 5 12 8 7 8 7 4 4 3 3 3 1 4 11 5 9 5 5 7 5 4 9 8 5 7
16 18 24 27 31 33 34 35 37 38 39 40 35 25 12 5 14 14 24 21 12 10 4 7 10 7 7 4 3 2 1 2 2 1 2 8 10 4 5 2 4 5 8 5 5 10 7
17 21 27 33 35 34 35 38 39 40 38 37 31 23 11 5 6 10 18 12 7 9 9 13 8 7 7 4 5 2 2 3 4 3 0 8 7 1 1 5 8 6 4 2 1 7 7
20 22 26 26 28 31 34 36 38 39 39 35 24 23 14 9 5 10 12 7 6 2 6 5 6 6 5 3 5 3 4 2 3 6 9 11 4 2 2 5 6 10 3 4 3 5 5
19 25 29 27 28 29 33 36 38 38 37 30 20 23 20 10 10 10 7 6 5 9 4 6 8 11 11 5 3 3 4 3 2 3 2 12 8 5 8 1 2 5 6 11 8 6 2
22 29 29 29 29 30 32 35 38 41 36 27 14 25 26 19 14 11 7 5 8 10 7 11 6 10 8 7 7 6 9 14 9 10 11 12 5 6 1 4 6 10 10 6 6 5 8
23 27 29 31 32 33 34 36 36 38 34 26 5 16 25 23 13 11 4 7 11 1 5 7 6 9 3 13 10 13 6 9 10 10 5 6 11 4 4 3 4 2 9 9 5 3 6
24 27 25 31 33 34 37 40 39 39 34 21 5 6 28 22 13 12 3 12 3 5 6 12 11 8 8 9 8 10 7 4 5 10 3 7 9 8 2 3 4 1 2 6 8 4 3
22 22 25 30 30 33 36 38 39 36 36 24 8 6 29 17 14 11 11 9 5 10 8 5 7 10 9 14 10 9 6 7 11 8 7 2 9 4 9 3 5 4 6 2 5 5 6
18 22 25 29 31 31 33 37 39 37 34 23 7 2 27 9 10 15 8 5 7 10 13 9 6 7 7 8 6 7 6 4 11 13 6 7 4 13 6 3 1 7 3 6 4 6 8
18 22 26 30 29 31 34 35 37 38 32 18 6 6 28 5 12 9 5 5 8 16 25 15 8 9 6 9 8 6 5 9 26 10 6 3 3 8 14 5 4 3 6 6 7 6 1
17 21 25 29 29 29 32 34 35 34 33 21 8 10 24 8 7 4 8 9 21 15 14 11 11 11 10 9 5 10 7 11 32 16 8 9 4 8 15 10 13 13 9 11 3 3 8
16 19 23 29 29 29 30 30 34 31 27 17 6 6 20 33 17 9 7 8 7 24 19 17 14 14 10 11 10 5 12 11 20 24 19 3 2 6 8 5 4 12 24 8 5 5 7
15 21 25 28 29 30 32 37 36 30 22 8 11 7 7 5 19 19 10 6 5 10 13 31 10 12 6 7 9 8 10 13 11 26 12 9 3 7 7 12 7 13 9 11 5 11 6
12 20 21 23 26 29 32 34 35 31 18 14 9 8 14 10 6 14 15 9 7 6 10 7 8 7 8 5 3 7 10 4 7 13 9 15 5 8 7 7 10 8 14 7 11 8 15
11 14 18 19 22 26 30 33 34 35 24 19 21 18 9 19 7 7 2 2 7 5 8 12 4 5 7 2 26 38 37 36 31 7 7 5 1 6 9 10 16 2 8 15 10 14 6
8 12 13 17 20 21 26 32 35 39 41 25 19 11 10 6 8 4 7 9 7 9 3 9 12 7 10 33 38 20 19 29 30 28 27 4 3 1 6 11 6 8 8 16 14 7 10
3 8 10 12 15 17 22 27 30 32 36 29 21 9 9 6 8 16 14 7 10 8 7 4 10 15 19 17 9 10 8 4 6 5 14 23 7 4 3 4 1 6 4 4 3 5 3
3 4 6 8 10 14 18 20 24 25 26 24 30 23 15 20 3 10 7 7 3 5 10 4 11 14 14 7 6 7 5 5 9 14 20 11 5 4 0 3 7 2 9 22 6 9 4
6 4 4 2 7 13 16 18 20 21 21 23 27 23 15 15 7 7 6 3 3 5 2 5 15 16 19 6 6 5 4 3 4 7 7 5 3 7 8 7 7 5 12 17 9 5 6
7 7 6 6 3 7 10 13 16 18 18 17 21 22 18 10 10 8 6 4 3 1 4 6 6 9 8 7 4 3 3 3 4 6 5 3 2 5 2 6 9 8 1 4 14 19 11
10 7 4 10 2 2 2 8 12 13 13 14 16 18 17 7 3 7 0 6 22 8 2 1 3 1 2 6 2 2 3 4 4 5 8 6 9 6 12 8 1 6 9 36 24 20 9
Wind_Direction_850mb
326 324 321 320 319 320 320 324 325 328 325 334 332 330 330 329 327 326 322 312 295 275 264 264 282 297 278 204 130 137 151 194 224 99 1 27 40 22 2 320 337 178 307 311 294 298 275
318 318 317 317 317 321 322 325 327 323 329 333 330 330 330 330 331 330 326 315 301 273 253 244 248 248 179 146 139 100 332 244 213 171 35 33 27 340 280 271 174 298 292 289 295 283 278
310 311 314 316 321 326 324 326 326 329 332 327 326 327 328 330 334 331 330 319 311 278 244 223 212 176 174 145 156 118 357 178 178 288 325 335 336 327 310 310 320 301 317 330 348 328 220
311 318 325 326 332 331 326 332 336 336 330 326 328 327 327 331 336 337 341 340 340 304 179 158 155 147 107 156 203 277 311 200 178 224 356 356 346 320 252 314 356 23 39 9 311 5 358
325 333 336 335 334 331 332 335 338 338 338 335 330 327 329 334 341 348 359 30 59 86 113 121 125 120 116 127 88 5 239 206 208 206 288 305 319 31 35 63 15 6 7 331 325 13 342
341 344 343 342 343 345 346 348 348 350 349 345 338 332 332 337 350 2 32 86 87 96 107 99 89 110 114 60 327 304 249 225 272 215 278 7 40 58 31 64 216 287 346 304 260 311 3
349 349 352 352 350 352 351 352 355 356 355 354 348 340 334 341 3 17 106 121 102 81 52 59 29 25 27 347 2 100 115 198 228 323 41 21 54 228 236 197 188 196 204 251 263 276 9
356 357 352 352 351 349 352 353 356 357 355 354 353 347 340 346 35 35 79 104 85 104 55 49 39 15 336 332 13 101 104 73 89 329 7 15 249 234 244 208 208 238 271 273 288 313 96
353 345 346 348 349 350 352 354 356 359 358 355 353 358 357 11 45 45 58 82 88 114 68 33 30 23 358 349 28 113 47 46 155 294 197 168 246 7 179 244 265 248 201 228 231 344 47
328 335 353 355 356 358 357 356 360 1 360 357 357 7 21 75 36 55 43 44 77 105 81 324 1 20 8 36 16 35 14 336 34 272 53 225 280 46 122 271 140 300 208 118 85 60 212
356 7 358 2 1 3 2 1 2 3 0 2 12 17 30 41 76 50 13 40 122 118 66 342 349 357 343 24 319 28 325 284 257 282 70 262 313 338 311 228 172 227 79 299 215 117 38
5 4 3 9 9 6 1 360 1 4 5 5 23 26 25 43 42 21 47 104 113 47 101 357 350 354 9 6 342 344 37 40 342 318 332 239 287 239 214 329 244 79 66 48 49 93 353
3 3 7 8 5 3 1 360 359 0 5 4 28 30 34 30 7 17 14 121 43 94 312 341 343 3 352 309 342 36 43 19 26 10 3 332 317 308 277 13 34 71 56 342 357 11 225
359 1 4 5 3 0 358 355 356 355 360 357 6 30 24 13 8 9 37 57 74 81 342 337 346 312 82 8 30 9 55 28 16 23 27 24 329 350 356 144 194 59 138 151 257 236 275
357 359 7 4 3 360 356 352 352 350 348 356 344 24 13 5 16 12 28 52 109 1 316 343 314 39 350 6 43 71 52 7 331 13 73 8 278 320 288 2 83 145 191 183 117 20 50
0 9 9 4 1 357 354 352 348 353 347 351 343 303 5 14 15 23 70 117 94 15 338 14 43 28 356 351 25 47 19 1 334 15 323 17 311 321 302 10 45 160 179 17 11 212 239
4 9 7 0 358 355 352 353 349 350 349 348 11 67 4 11 30 45 92 115 102 19 35 43 42 18 11 13 327 15 18 23 9 319 27 4 105 290 330 63 46 348 333 53 120 149 179
11 9 6 5 2 356 358 353 350 351 356 354 48 54 5 57 45 43 61 51 49 6 29 40 89 49 29 358 346 43 75 11 358 330 1 2 142 271 251 271 298 280 9 110 132 256 30
14 8 6 3 5 359 359 360 355 357 0 11 51 10 17 114 99 56 74 70 53 27 17 15 33 27 19 20 27 34 34 21 18 27 31 327 2 341 339 3 10 37 21 15 317 60 207
17 14 8 3 6 7 9 7 360 359 2 21 40 34 32 55 61 85 80 26 89 48 52 64 23 45 17 28 12 35 353 5 353 18 4 35 53 175 214 276 299 309 319 10 42 324 307
8 12 1 0 6 9 13 12 9 2 5 53 60 67 33 11 23 69 77 40 45 19 31 31 43 51 12 348 348 21 7 332 7 8 32 63 295 8 284 274 271 265 321 348 266 235 245
2 11 5 5 10 14 16 20 18 15 12 68 85 107 82 55 51 55 28 16 52 24 34 14 69 345 24 84 138 296 20 299 267 355 31 357 296 6 286 298 308 248 359 38 41 355 87
7 13 3 10 18 21 25 26 31 31 34 77 86 97 100 16 43 76 2 59 43 99 68 69 66 19 8 284 304 290 276 255 258 302 358 307 332 24 271 327 310 284 12 82 76 36 71
1 6 9 14 22 29 33 34 39 42 47 67 86 92 87 18 66 61 89 92 67 38 109 34 34 34 317 314 306 292 269 258 250 250 217 225 111 145 282 344 242 142 105 104 91 22 60
342 1 7 18 24 33 39 38 38 46 51 49 60 84 95 109 109 65 70 79 62 62 72 73 22 335 329 334 9 3 352 22 22 212 215 195 146 258 244 247 347 256 20 2 312 200 88
286 322 5 17 40 47 43 43 43 48 51 49 61 72 96 120 336 118 86 43 88 11 10 22 11 20 18 59 48 38 27 317 330 352 57 107 98 145 53 247 261 63 293 322 199 236 283
256 287 333 46 72 61 52 49 49 47 44 46 57 59 77 96 111 120 114 144 81 63 113 335 346 2 13 32 54 39 317 293 336 336 326 351 63 195 248 255 277 253 338 343 177 143 258
239 271 279 190 104 60 42 41 40 45 48 47 51 47 52 92 134 128 145 196 209 119 117 339 20 6 31 52 49 317 354 312 325 279 284 244 320 235 231 232 245 236 224 1 277 312 285
226 255 254 193 224 191 53 35 25 24 33 38 40 30 30 69 164 268 13 274 237 241 327 332 138 22 56 93 35 113 299 343 149 262 328 275 198 214 185 235 254 186 245 309 283 284 278